IRIDIUM 33 DEB, 33776

Orbit data source: Space-Track

IRIDIUM 33 DEB, 33776 is space debris in LEO originally from a launch on Sun, 14 Sep 1997 UTC launched from the Tyuratam Missile And Space Complex (TTMTR). The debris from Iridium 33, an American commercial communications satellite, has been tracked extensively since its accidental collision with the defunct Russian satellite Cosmos 2251 in 2009. This event, occurring at high speed in low Earth orbit (LEO), generated thousands of pieces of space debris, significantly increasing the risk of further collisions. The Iridium 33 debris cloud has impacted space traffic management and orbital debris mitigation strategies, making it a subject of ongoing study in space situational awareness.

Loading next visibility...
Identifier
33776, 1997-051P
Orbit
LEO
Country
Flag of USUS
Related business
Manufacturer
Unknown
Mission
Spacecraft
Bus & Motor
Unknown
Mass
Unknown
Launch date (UTC)
1997-09-14 (29 years ago)
Launch vehicle
Unknown
Launch site
Tyuratam Missile And Space Complex (TTMTR)
Object type
Payload
Rocket body
Debris
Shape & HBR
Unknown shape, 0.6 m
Radar Cross Section
Medium (>0.1 m² and <1 m²)

Expand to show TLE details & history
Last TLE update: 20 hours ago

TLE from 20 hours ago
0 IRIDIUM 33 DEB
1 33776U 97051P   26267.07242703  .00000406  00000-0  12595-3 0  9991
2 33776  86.4052 320.9242 0013655 349.5437  28.2767 14.38635715921849
Epoch: 2026-09-24T01:44Z
TLE epoch observation values (Epoch: 2026-09-24T01:44:17.695Z)
Latitude
17.84795°
Longitude
-66.91108°
Altitude
756.909 km
Speed
7.482 km/s
True Right ascension
21h 28m 18s
True Declination
17° 44' 52"
Sunlit
Object was in full shadow at epoch
Visualization orbit readout
Latitude
Unknown
Longitude
Unknown
Altitude
Unknown
Speed
Unknown
Apparent Right ascension
Unknown
Apparent Declination
Unknown
Sunlit
N/A
Visualization observer readout
Local Sidereal Time
15:04:22
Azimuth
Unknown
Elevation
Unknown
Doppler factor
Unknown
Orbital elements
Apogee altitude
769.715 km
Perigee altitude
750.221 km
Semi-major axis
7,138.105 km
Eccentricity
0.00137
Inclination
86.4052°
RAAN
320.9242°
Arg. of periapsis
349.5437°
True anomaly
28.35094°
Mean anomaly
28.2767°
Eccentric anomaly
28.31381°
Mean motion
3.59889 °/min
Orbital period
100.03 mins
BSTAR
0.00012595

Documentation

Showing up to 5 results
|